Time,TemperatureF,DewpointF,PressureIn,WindDirection,WindDirectionDegrees,WindSpeedMPH,WindSpeedGustMPH,Humidity,HourlyPrecipIn,Conditions,Clouds,dailyrainin,SoftwareType,DateUTC
2013-05-21 00:02:00,61.7,58.7,29.41,SSE,158,0.9,0.9,90,0.00,,FEW016,0.00,VWS V14.01,2013-05-21 07:02:00,
2013-05-21 00:07:00,61.9,59.2,29.41,SSE,158,0.9,0.9,91,0.00,,FEW016,0.00,VWS V14.01,2013-05-21 07:07:00,
2013-05-21 00:12:00,61.9,59.2,29.41,SSE,158,0.9,0.9,91,0.00,,FEW016,0.00,VWS V14.01,2013-05-21 07:12:00,
2013-05-21 00:17:00,62.2,59.3,29.41,SSE,158,0.9,0.9,90,0.00,,BKN016,0.00,VWS V14.01,2013-05-21 07:17:00,
2013-05-21 00:22:00,62.2,59.3,29.41,SSE,158,0.9,0.9,90,0.00,,BKN016,0.00,VWS V14.01,2013-05-21 07:22:00,
2013-05-21 00:27:00,62.2,59.3,29.41,SSE,158,0.9,0.9,90,0.00,,BKN016,0.00,VWS V14.01,2013-05-21 07:27:00,
2013-05-21 00:32:00,62.4,59.5,29.41,SSE,158,0.9,0.9,90,0.00,,OVC014,0.00,VWS V14.01,2013-05-21 07:32:00,
2013-05-21 00:37:00,62.4,59.5,29.41,SSE,158,0.9,0.9,90,0.00,,OVC014,0.00,VWS V14.01,2013-05-21 07:37:00,
2013-05-21 00:42:00,62.4,59.5,29.41,SSE,158,0.9,0.9,90,0.00,,OVC014,0.00,VWS V14.01,2013-05-21 07:42:00,
2013-05-21 00:47:00,62.4,59.5,29.41,SSE,158,0.9,0.9,90,0.00,,OVC014,0.00,VWS V14.01,2013-05-21 07:47:00,
2013-05-21 00:52:00,62.4,59.5,29.41,SSE,158,0.9,0.9,90,0.00,,OVC014,0.00,VWS V14.01,2013-05-21 07:52:00,
2013-05-21 00:57:00,62.6,59.3,29.41,SSE,158,0.9,0.9,89,0.00,,OVC014,0.00,VWS V14.01,2013-05-21 07:57:00,
2013-05-21 01:02:00,62.6,59.0,29.41,SSE,158,0.9,0.9,88,0.00,,OVC012,0.00,VWS V14.01,2013-05-21 08:02:00,
2013-05-21 01:07:00,62.6,59.3,29.41,SSE,158,0.9,0.9,89,0.00,,OVC012,0.00,VWS V14.01,2013-05-21 08:07:00,
2013-05-21 01:12:00,62.6,59.0,29.41,SSE,158,0.9,0.9,88,0.00,,OVC012,0.00,VWS V14.01,2013-05-21 08:12:00,
2013-05-21 01:17:00,62.6,59.0,29.38,SSE,158,0.9,0.9,88,0.00,,OVC012,0.00,VWS V14.01,2013-05-21 08:17:00,
2013-05-21 01:22:00,62.6,58.7,29.38,SSE,158,0.9,0.9,87,0.00,,OVC012,0.00,VWS V14.01,2013-05-21 08:22:00,
2013-05-21 01:27:00,62.6,58.7,29.38,SSE,158,0.9,0.9,87,0.00,,OVC012,0.00,VWS V14.01,2013-05-21 08:27:00,
2013-05-21 01:32:00,62.6,58.7,29.38,SSE,158,0.9,0.9,87,0.00,,OVC012,0.00,VWS V14.01,2013-05-21 08:32:00,
2013-05-21 01:37:00,62.4,58.5,29.38,SSE,158,0.9,0.9,87,0.00,,OVC012,0.00,VWS V14.01,2013-05-21 08:37:00,
2013-05-21 01:42:00,62.4,58.5,29.38,SSE,158,0.9,0.9,87,0.00,,OVC012,0.00,VWS V14.01,2013-05-21 08:42:00,
2013-05-21 01:47:00,62.4,58.5,29.38,SSE,158,0.9,0.9,87,0.00,,OVC012,0.00,VWS V14.01,2013-05-21 08:47:00,
2013-05-21 01:52:00,62.4,58.5,29.38,SSE,158,0.9,0.9,87,0.00,,OVC012,0.00,VWS V14.01,2013-05-21 08:52:00,
2013-05-21 01:57:00,62.4,58.5,29.38,SSE,158,0.9,0.9,87,0.00,,OVC012,0.00,VWS V14.01,2013-05-21 08:57:00,
2013-05-21 02:02:00,62.4,58.5,29.38,SSE,158,0.9,0.9,87,0.00,,OVC012,0.00,VWS V14.01,2013-05-21 09:02:00,
2013-05-21 02:07:00,62.2,58.3,29.38,SSE,158,0.9,0.9,87,0.00,,OVC012,0.00,VWS V14.01,2013-05-21 09:07:00,
2013-05-21 02:12:00,62.2,58.3,29.38,SSE,158,0.9,0.9,87,0.00,,OVC012,0.00,VWS V14.01,2013-05-21 09:12:00,
2013-05-21 02:17:00,62.2,58.3,29.35,SSE,158,0.9,0.9,87,0.00,,OVC010,0.00,VWS V14.01,2013-05-21 09:17:00,
2013-05-21 02:22:00,62.2,58.7,29.35,SSE,158,0.9,0.9,88,0.00,,OVC010,0.00,VWS V14.01,2013-05-21 09:22:00,
2013-05-21 02:27:00,62.2,58.7,29.35,SSE,158,0.9,0.9,88,0.00,,OVC010,0.00,VWS V14.01,2013-05-21 09:27:00,
2013-05-21 02:32:00,62.2,58.7,29.38,SSE,158,0.9,0.9,88,0.00,,OVC010,0.00,VWS V14.01,2013-05-21 09:32:00,
2013-05-21 02:37:00,62.2,58.7,29.38,SSE,158,0.9,0.9,88,0.00,,OVC010,0.00,VWS V14.01,2013-05-21 09:37:00,
2013-05-21 02:42:00,62.2,58.3,29.38,SSE,158,0.9,0.9,87,0.00,,OVC010,0.00,VWS V14.01,2013-05-21 09:42:00,
2013-05-21 02:47:00,62.2,58.7,29.35,SSE,158,0.9,0.9,88,0.00,,OVC010,0.00,VWS V14.01,2013-05-21 09:47:00,
2013-05-21 02:52:00,62.2,58.7,29.35,SSE,158,0.9,0.9,88,0.00,,OVC010,0.00,VWS V14.01,2013-05-21 09:52:00,
2013-05-21 02:57:00,62.2,58.7,29.35,SSE,158,0.9,0.9,88,0.00,,OVC010,0.00,VWS V14.01,2013-05-21 09:57:00,
2013-05-21 03:02:00,62.2,58.7,29.38,SSE,158,0.9,0.9,88,0.00,,OVC010,0.00,VWS V14.01,2013-05-21 10:02:00,
2013-05-21 03:07:00,62.2,58.3,29.38,SSE,158,0.9,0.9,87,0.00,,OVC010,0.00,VWS V14.01,2013-05-21 10:07:00,
2013-05-21 03:12:00,62.2,58.7,29.38,SSE,158,0.9,0.9,88,0.00,,OVC010,0.00,VWS V14.01,2013-05-21 10:12:00,
2013-05-21 03:17:00,62.1,58.5,29.38,SSE,158,0.9,0.9,88,0.00,,OVC010,0.00,VWS V14.01,2013-05-21 10:17:00,
2013-05-21 03:22:00,62.1,58.5,29.38,SSE,158,0.9,0.9,88,0.00,,OVC010,0.00,VWS V14.01,2013-05-21 10:22:00,
2013-05-21 03:27:00,62.1,58.5,29.38,SSE,158,0.9,0.9,88,0.00,,OVC010,0.00,VWS V14.01,2013-05-21 10:27:00,
2013-05-21 03:32:00,61.9,58.3,29.38,SSE,158,0.9,0.9,88,0.00,,OVC010,0.00,VWS V14.01,2013-05-21 10:32:00,
2013-05-21 03:37:00,61.9,58.3,29.38,SSE,158,0.9,0.9,88,0.00,,OVC010,0.00,VWS V14.01,2013-05-21 10:37:00,
2013-05-21 03:42:00,61.9,58.3,29.38,SSE,158,0.9,0.9,88,0.00,,OVC010,0.00,VWS V14.01,2013-05-21 10:42:00,
2013-05-21 03:47:00,61.9,58.6,29.38,SSE,158,0.9,0.9,89,0.00,,OVC010,0.00,VWS V14.01,2013-05-21 10:47:00,
2013-05-21 03:52:00,61.7,58.1,29.38,SSE,158,0.9,0.9,88,0.00,,OVC010,0.00,VWS V14.01,2013-05-21 10:52:00,
2013-05-21 03:57:00,61.7,58.1,29.38,SSE,158,0.9,0.9,88,0.00,,OVC010,0.00,VWS V14.01,2013-05-21 10:57:00,
2013-05-21 04:02:00,61.7,58.4,29.38,SSE,158,0.9,0.9,89,0.00,,OVC010,0.00,VWS V14.01,2013-05-21 11:02:00,
2013-05-21 04:07:00,61.7,58.4,29.38,SSE,158,0.9,0.9,89,0.00,,OVC010,0.00,VWS V14.01,2013-05-21 11:07:00,
2013-05-21 04:12:00,61.7,58.4,29.38,SSE,158,0.9,0.9,89,0.00,,OVC010,0.00,VWS V14.01,2013-05-21 11:12:00,
2013-05-21 04:17:00,61.7,58.4,29.41,SSE,158,0.9,0.9,89,0.00,,OVC010,0.00,VWS V14.01,2013-05-21 11:17:00,
2013-05-21 04:22:00,61.7,58.7,29.41,SSE,158,0.9,0.9,90,0.00,,OVC010,0.00,VWS V14.01,2013-05-21 11:22:00,
2013-05-21 04:27:00,61.5,58.9,29.41,SSE,158,0.9,0.9,91,0.00,,OVC010,0.00,VWS V14.01,2013-05-21 11:27:00,
2013-05-21 04:32:00,61.5,58.9,29.38,SSE,158,0.9,0.9,91,0.00,,OVC010,0.00,VWS V14.01,2013-05-21 11:32:00,
2013-05-21 04:37:00,61.5,58.9,29.38,SSE,158,0.9,0.9,91,0.00,,OVC010,0.00,VWS V14.01,2013-05-21 11:37:00,
2013-05-21 04:42:00,61.3,58.7,29.38,SSE,158,0.9,0.9,91,0.00,,OVC010,0.00,VWS V14.01,2013-05-21 11:42:00,
2013-05-21 04:47:00,61.3,58.7,29.38,SSE,158,0.9,0.9,91,0.00,,OVC010,0.00,VWS V14.01,2013-05-21 11:47:00,
2013-05-21 04:52:00,61.3,58.7,29.38,SSE,158,0.9,0.9,91,0.00,,OVC010,0.00,VWS V14.01,2013-05-21 11:52:00,
2013-05-21 04:57:00,61.3,59.0,29.38,SSE,158,0.9,0.9,92,0.00,,OVC010,0.00,VWS V14.01,2013-05-21 11:57:00,
2013-05-21 05:02:00,61.2,58.5,29.38,SSE,158,0.9,0.9,91,0.00,,OVC010,0.00,VWS V14.01,2013-05-21 12:02:00,
2013-05-21 05:07:00,61.2,58.5,29.38,SSE,158,0.9,0.9,91,0.00,,OVC010,0.00,VWS V14.01,2013-05-21 12:07:00,
2013-05-21 05:12:00,61.2,58.8,29.38,SSE,158,0.9,0.9,92,0.00,,OVC010,0.00,VWS V14.01,2013-05-21 12:12:00,
2013-05-21 05:17:00,61.2,58.8,29.38,SSE,158,0.9,0.9,92,0.00,,OVC010,0.00,VWS V14.01,2013-05-21 12:17:00,
2013-05-21 05:22:00,61.2,58.8,29.38,SSE,158,0.9,0.9,92,0.00,,OVC010,0.00,VWS V14.01,2013-05-21 12:22:00,
2013-05-21 05:27:00,61.2,58.8,29.38,SSE,158,0.9,0.9,92,0.00,,OVC010,0.00,VWS V14.01,2013-05-21 12:27:00,
2013-05-21 05:32:00,61.2,59.1,29.38,SSE,158,0.9,0.9,93,0.00,,OVC010,0.00,VWS V14.01,2013-05-21 12:32:00,
2013-05-21 05:37:00,61.2,59.1,29.38,SSE,158,0.9,0.9,93,0.00,,OVC010,0.00,VWS V14.01,2013-05-21 12:37:00,
2013-05-21 05:42:00,61.2,59.1,29.38,SSE,158,0.9,0.9,93,0.00,,OVC010,0.00,VWS V14.01,2013-05-21 12:42:00,
2013-05-21 05:47:00,61.0,58.6,29.38,SSE,158,0.9,0.9,92,0.00,,OVC010,0.00,VWS V14.01,2013-05-21 12:47:00,
2013-05-21 05:52:00,61.0,59.0,29.38,SSE,158,0.9,0.9,93,0.00,,OVC010,0.00,VWS V14.01,2013-05-21 12:52:00,
2013-05-21 05:57:00,61.0,59.0,29.38,SSE,158,0.9,0.9,93,0.00,,OVC010,0.00,VWS V14.01,2013-05-21 12:57:00,
2013-05-21 06:02:00,61.0,58.6,29.38,SSE,158,0.9,0.9,92,0.00,,OVC010,0.00,VWS V14.01,2013-05-21 13:02:00,
2013-05-21 06:07:00,61.0,58.6,29.38,SSE,158,0.9,0.9,92,0.00,,OVC010,0.00,VWS V14.01,2013-05-21 13:07:00,
2013-05-21 06:12:00,61.0,58.6,29.38,SSE,158,0.9,0.9,92,0.00,,OVC010,0.00,VWS V14.01,2013-05-21 13:12:00,
2013-05-21 06:17:00,61.0,58.6,29.38,SSE,158,0.9,0.9,92,0.00,,OVC010,0.00,VWS V14.01,2013-05-21 13:17:00,
2013-05-21 06:22:00,61.0,59.0,29.38,SSE,158,0.9,0.9,93,0.00,,OVC010,0.00,VWS V14.01,2013-05-21 13:22:00,
2013-05-21 06:27:00,61.0,58.6,29.38,SSE,158,0.9,0.9,92,0.00,,OVC010,0.00,VWS V14.01,2013-05-21 13:27:00,
2013-05-21 06:32:00,61.0,58.6,29.38,SSE,158,0.9,0.9,92,0.00,,OVC010,0.00,VWS V14.01,2013-05-21 13:32:00,
2013-05-21 06:37:00,61.0,58.6,29.38,SSE,158,0.9,0.9,92,0.00,,OVC010,0.00,VWS V14.01,2013-05-21 13:37:00,
2013-05-21 06:42:00,61.0,59.0,29.38,SSE,158,0.9,0.9,93,0.00,,OVC010,0.00,VWS V14.01,2013-05-21 13:42:00,
2013-05-21 06:48:00,61.0,59.0,29.38,SSE,158,0.9,0.9,93,0.00,,OVC010,0.00,VWS V14.01,2013-05-21 13:48:00,
2013-05-21 06:53:00,61.0,59.0,29.38,SSE,158,0.9,0.9,93,0.00,,OVC010,0.00,VWS V14.01,2013-05-21 13:53:00,
2013-05-21 06:58:00,61.2,59.1,29.38,SSE,158,0.9,0.9,93,0.00,,OVC010,0.00,VWS V14.01,2013-05-21 13:58:00,
2013-05-21 07:03:00,61.7,60.0,29.38,SSE,158,0.9,0.9,94,0.00,,OVC010,0.00,VWS V14.01,2013-05-21 14:03:00,
2013-05-21 07:08:00,61.7,60.0,29.38,SSE,158,0.9,0.9,94,0.00,,OVC010,0.00,VWS V14.01,2013-05-21 14:08:00,
2013-05-21 07:13:00,61.5,59.5,29.38,SSE,158,0.9,0.9,93,0.00,,OVC010,0.00,VWS V14.01,2013-05-21 14:13:00,
2013-05-21 07:18:00,61.7,59.4,29.38,SSE,158,0.9,0.9,92,0.00,,OVC010,0.00,VWS V14.01,2013-05-21 14:18:00,
2013-05-21 07:23:00,61.9,59.5,29.38,SSE,158,0.9,0.9,92,0.00,,OVC010,0.00,VWS V14.01,2013-05-21 14:23:00,
2013-05-21 07:28:00,61.9,59.5,29.38,SSE,158,0.9,0.9,92,0.00,,OVC010,0.00,VWS V14.01,2013-05-21 14:28:00,
2013-05-21 07:33:00,62.1,59.7,29.41,SSE,158,0.9,0.9,92,0.00,,OVC010,0.00,VWS V14.01,2013-05-21 14:33:00,
2013-05-21 07:38:00,62.1,59.7,29.41,SSE,158,0.9,0.9,92,0.00,,OVC010,0.00,VWS V14.01,2013-05-21 14:38:00,
2013-05-21 07:43:00,62.2,59.9,29.41,SSE,158,0.9,0.9,92,0.00,,OVC010,0.00,VWS V14.01,2013-05-21 14:43:00,
2013-05-21 07:48:00,62.2,59.9,29.41,SSE,158,0.9,0.9,92,0.00,,OVC010,0.00,VWS V14.01,2013-05-21 14:48:00,
2013-05-21 07:53:00,62.6,59.9,29.41,SSE,158,0.9,0.9,91,0.00,,OVC010,0.00,VWS V14.01,2013-05-21 14:53:00,
2013-05-21 07:58:00,62.8,60.1,29.41,SSE,158,0.9,0.9,91,0.00,,OVC010,0.00,VWS V14.01,2013-05-21 14:58:00,
2013-05-21 08:03:00,63.1,60.5,29.41,SSE,158,0.9,0.9,91,0.00,,OVC010,0.00,VWS V14.01,2013-05-21 15:03:00,
2013-05-21 08:08:00,63.3,60.3,29.41,SSE,158,0.9,0.9,90,0.00,,OVC010,0.00,VWS V14.01,2013-05-21 15:08:00,
2013-05-21 08:13:00,63.5,60.2,29.41,SSE,158,0.9,0.9,89,0.00,,OVC010,0.00,VWS V14.01,2013-05-21 15:13:00,
2013-05-21 08:18:00,63.5,59.9,29.41,SSE,158,0.9,0.9,88,0.00,,OVC010,0.00,VWS V14.01,2013-05-21 15:18:00,
2013-05-21 08:23:00,63.5,59.6,29.41,SSE,158,0.9,0.9,87,0.00,,OVC010,0.00,VWS V14.01,2013-05-21 15:23:00,
2013-05-21 08:28:00,63.7,59.7,29.41,SSE,158,0.9,0.9,87,0.00,,OVC010,0.00,VWS V14.01,2013-05-21 15:28:00,
2013-05-21 08:33:00,63.7,59.4,29.41,SSE,158,0.9,0.9,86,0.00,,OVC010,0.00,VWS V14.01,2013-05-21 15:33:00,
2013-05-21 08:38:00,63.9,59.6,29.41,SSE,158,0.9,0.9,86,0.00,,OVC010,0.00,VWS V14.01,2013-05-21 15:38:00,
2013-05-21 08:43:00,64.2,59.6,29.41,SSE,158,0.9,0.9,85,0.00,,OVC010,0.00,VWS V14.01,2013-05-21 15:43:00,
2013-05-21 08:48:00,64.4,59.5,29.44,SSE,158,0.9,0.9,84,0.00,,OVC010,0.00,VWS V14.01,2013-05-21 15:48:00,
2013-05-21 08:53:00,64.4,59.1,29.44,SSE,158,0.9,0.9,83,0.00,,OVC010,0.00,VWS V14.01,2013-05-21 15:53:00,
2013-05-21 08:58:00,64.6,59.3,29.44,SSE,158,0.9,0.9,83,0.00,,OVC010,0.00,VWS V14.01,2013-05-21 15:58:00,
2013-05-21 09:03:00,64.8,59.1,29.41,SSE,158,0.9,0.9,82,0.00,,OVC010,0.00,VWS V14.01,2013-05-21 16:03:00,
2013-05-21 09:08:00,65.1,59.5,29.41,SSE,158,0.9,0.9,82,0.00,,OVC010,0.00,VWS V14.01,2013-05-21 16:08:00,
2013-05-21 09:13:00,65.7,60.0,29.41,SSE,158,0.9,0.9,82,0.00,,OVC010,0.00,VWS V14.01,2013-05-21 16:13:00,
2013-05-21 09:18:00,66.4,60.4,29.41,SSE,158,0.9,0.9,81,0.00,,OVC012,0.00,VWS V14.01,2013-05-21 16:18:00,
2013-05-21 09:23:00,66.9,60.6,29.41,SSE,158,0.9,0.9,80,0.00,,OVC012,0.00,VWS V14.01,2013-05-21 16:23:00,
2013-05-21 09:28:00,67.5,60.4,29.41,SSE,158,0.9,0.9,78,0.00,,OVC012,0.00,VWS V14.01,2013-05-21 16:28:00,
2013-05-21 09:33:00,67.6,59.8,29.38,SSE,158,0.9,0.9,76,0.00,,OVC012,0.00,VWS V14.01,2013-05-21 16:33:00,
2013-05-21 09:38:00,68.4,60.1,29.38,SSE,158,0.9,0.9,75,0.00,,OVC012,0.00,VWS V14.01,2013-05-21 16:38:00,
2013-05-21 09:43:00,69.6,60.6,29.38,SSE,158,0.9,0.9,73,0.00,,OVC012,0.00,VWS V14.01,2013-05-21 16:43:00,
2013-05-21 09:48:00,70.7,60.0,29.38,SSE,158,0.9,0.9,69,0.00,,OVC012,0.00,VWS V14.01,2013-05-21 16:48:00,
2013-05-21 09:53:00,72.0,61.2,29.38,SSE,158,0.9,0.9,69,0.00,,OVC012,0.00,VWS V14.01,2013-05-21 16:53:00,
2013-05-21 09:58:00,72.5,60.5,29.38,SSE,158,0.9,0.9,66,0.00,,OVC012,0.00,VWS V14.01,2013-05-21 16:58:00,
2013-05-21 10:03:00,73.0,60.2,29.41,SSE,158,0.9,0.9,64,0.00,,OVC014,0.00,VWS V14.01,2013-05-21 17:03:00,
2013-05-21 10:08:00,74.1,60.7,29.41,SSE,158,0.9,0.9,63,0.00,,OVC014,0.00,VWS V14.01,2013-05-21 17:08:00,
2013-05-21 10:13:00,75.4,60.1,29.41,SSE,158,0.9,0.9,59,0.00,,OVC014,0.00,VWS V14.01,2013-05-21 17:13:00,
2013-05-21 10:18:00,76.1,58.8,29.41,SSE,158,0.9,0.9,55,0.00,,BKN016,0.00,VWS V14.01,2013-05-21 17:18:00,
2013-05-21 10:23:00,77.0,59.1,29.41,SSE,158,0.9,0.9,54,0.00,,BKN016,0.00,VWS V14.01,2013-05-21 17:23:00,
2013-05-21 10:28:00,77.4,58.9,29.41,SSE,158,0.9,0.9,53,0.00,,BKN016,0.00,VWS V14.01,2013-05-21 17:28:00,
2013-05-21 10:33:00,77.5,57.5,29.41,SSE,158,0.9,0.9,50,0.00,,BKN016,0.00,VWS V14.01,2013-05-21 17:33:00,
2013-05-21 10:38:00,78.8,57.5,29.41,SSE,158,0.9,0.9,48,0.00,,BKN016,0.00,VWS V14.01,2013-05-21 17:38:00,
2013-05-21 10:43:00,79.3,57.4,29.41,SSE,158,0.9,0.9,47,0.00,,BKN016,0.00,VWS V14.01,2013-05-21 17:43:00,
2013-05-21 10:48:00,79.9,58.5,29.41,SSE,158,0.9,0.9,48,0.00,,BKN016,0.00,VWS V14.01,2013-05-21 17:48:00,
2013-05-21 10:53:00,80.2,57.6,29.41,SSE,158,0.9,0.9,46,0.00,,BKN016,0.00,VWS V14.01,2013-05-21 17:53:00,
2013-05-21 10:58:00,80.6,57.9,29.41,SSE,158,0.9,0.9,46,0.00,,BKN016,0.00,VWS V14.01,2013-05-21 17:58:00,
2013-05-21 11:03:00,81.3,58.0,29.41,SSE,158,0.9,0.9,45,0.00,,BKN300,0.00,VWS V14.01,2013-05-21 18:03:00,
2013-05-21 11:08:00,81.9,57.8,29.41,SSE,158,0.9,0.9,44,0.00,,BKN300,0.00,VWS V14.01,2013-05-21 18:08:00,
2013-05-21 11:13:00,82.6,57.8,29.41,SSE,158,0.9,0.9,43,0.00,,BKN300,0.00,VWS V14.01,2013-05-21 18:13:00,
2013-05-21 11:18:00,83.5,58.0,29.38,SSE,158,0.9,0.9,42,0.00,,BKN300,0.00,VWS V14.01,2013-05-21 18:18:00,
2013-05-21 11:23:00,84.0,58.5,29.38,SSE,158,0.9,0.9,42,0.00,,BKN300,0.00,VWS V14.01,2013-05-21 18:23:00,
2013-05-21 11:28:00,85.3,58.9,29.38,SSE,158,0.9,0.9,41,0.00,,BKN300,0.00,VWS V14.01,2013-05-21 18:28:00,
2013-05-21 11:33:00,84.6,56.9,29.38,SSE,158,0.9,0.9,39,0.00,,BKN300,0.00,VWS V14.01,2013-05-21 18:33:00,
2013-05-21 11:38:00,84.6,56.2,29.38,SSE,158,0.9,0.9,38,0.00,,BKN300,0.00,VWS V14.01,2013-05-21 18:38:00,
2013-05-21 11:43:00,86.0,57.5,29.38,SSE,158,0.9,0.9,38,0.00,,BKN300,0.00,VWS V14.01,2013-05-21 18:43:00,
2013-05-21 11:48:00,87.1,56.9,29.38,SSE,158,0.9,0.9,36,0.00,,BKN300,0.00,VWS V14.01,2013-05-21 18:48:00,
2013-05-21 11:53:00,86.9,56.0,29.38,SSE,158,0.9,0.9,35,0.00,,BKN300,0.00,VWS V14.01,2013-05-21 18:53:00,
2013-05-21 11:58:00,87.1,58.4,29.38,SSE,158,0.9,0.9,38,0.00,,BKN300,0.00,VWS V14.01,2013-05-21 18:58:00,
2013-05-21 12:03:00,87.6,59.6,29.35,SSE,158,0.9,0.9,39,0.00,,BKN300,0.00,VWS V14.01,2013-05-21 19:03:00,
2013-05-21 12:09:00,88.3,58.8,29.35,SSE,158,0.9,0.9,37,0.00,,BKN300,0.00,VWS V14.01,2013-05-21 19:09:00,
2013-05-21 12:14:00,89.1,58.7,29.35,SSE,158,0.9,0.9,36,0.00,,BKN300,0.00,VWS V14.01,2013-05-21 19:14:00,
2013-05-21 12:19:00,88.9,57.7,29.35,SSE,158,0.9,0.9,35,0.00,,BKN300,0.00,VWS V14.01,2013-05-21 19:19:00,
2013-05-21 12:24:00,88.7,57.6,29.35,SSE,158,0.9,0.9,35,0.00,,BKN300,0.00,VWS V14.01,2013-05-21 19:24:00,
2013-05-21 12:29:00,89.2,58.8,29.38,SSE,158,0.9,0.9,36,0.00,,BKN300,0.00,VWS V14.01,2013-05-21 19:29:00,
2013-05-21 12:34:00,89.1,57.9,29.38,SSE,158,0.9,0.9,35,0.00,,BKN300,0.00,VWS V14.01,2013-05-21 19:34:00,
2013-05-21 12:39:00,88.3,57.2,29.38,SSE,158,0.9,0.9,35,0.00,,BKN300,0.00,VWS V14.01,2013-05-21 19:39:00,
2013-05-21 12:44:00,88.2,57.1,29.38,SSE,158,0.9,0.9,35,0.00,,BKN300,0.00,VWS V14.01,2013-05-21 19:44:00,
2013-05-21 12:49:00,88.5,57.4,29.38,SSE,158,0.9,0.9,35,0.00,,BKN300,0.00,VWS V14.01,2013-05-21 19:49:00,
2013-05-21 12:54:00,88.7,57.6,29.38,SSE,158,0.9,0.9,35,0.00,,BKN300,0.00,VWS V14.01,2013-05-21 19:54:00,
2013-05-21 12:59:00,87.6,55.8,29.38,SSE,158,0.9,0.9,34,0.00,,BKN300,0.00,VWS V14.01,2013-05-21 19:59:00,
2013-05-21 13:04:00,88.0,56.1,29.38,SSE,158,0.9,0.9,34,0.00,,BKN300,0.00,VWS V14.01,2013-05-21 20:04:00,
2013-05-21 13:09:00,87.4,56.5,29.38,SSE,158,0.9,0.9,35,0.00,,BKN300,0.00,VWS V14.01,2013-05-21 20:09:00,
2013-05-21 13:14:00,87.1,56.1,29.38,SSE,158,0.9,0.9,35,0.00,,BKN300,0.00,VWS V14.01,2013-05-21 20:14:00,
2013-05-21 13:19:00,87.8,56.0,29.38,SSE,158,0.9,0.9,34,0.00,,BKN300,0.00,VWS V14.01,2013-05-21 20:19:00,
2013-05-21 13:24:00,88.2,57.1,29.38,SSE,158,0.9,0.9,35,0.00,,BKN300,0.00,VWS V14.01,2013-05-21 20:24:00,
2013-05-21 13:29:00,87.6,56.6,29.38,SSE,158,0.9,0.9,35,0.00,,BKN300,0.00,VWS V14.01,2013-05-21 20:29:00,
2013-05-21 13:34:00,88.0,56.9,29.38,SSE,158,0.9,0.9,35,0.00,,BKN300,0.00,VWS V14.01,2013-05-21 20:34:00,
2013-05-21 13:39:00,87.8,56.0,29.38,SSE,158,0.9,0.9,34,0.00,,BKN300,0.00,VWS V14.01,2013-05-21 20:39:00,
2013-05-21 13:44:00,88.2,56.3,29.38,SSE,158,0.9,0.9,34,0.00,,BKN300,0.00,VWS V14.01,2013-05-21 20:44:00,
2013-05-21 13:49:00,89.4,56.6,29.38,SSE,158,0.9,0.9,33,0.00,,BKN300,0.00,VWS V14.01,2013-05-21 20:49:00,
2013-05-21 13:54:00,89.4,55.7,29.38,SSE,158,0.9,0.9,32,0.00,,BKN300,0.00,VWS V14.01,2013-05-21 20:54:00,
2013-05-21 13:59:00,89.4,55.7,29.38,SSE,158,0.9,0.9,32,0.00,,BKN300,0.00,VWS V14.01,2013-05-21 20:59:00,
2013-05-21 14:04:00,89.8,56.0,29.38,SSE,158,0.9,0.9,32,0.00,,BKN300,0.00,VWS V14.01,2013-05-21 21:04:00,
2013-05-21 14:09:00,90.1,56.3,29.38,SSE,158,0.9,0.9,32,0.00,,BKN300,0.00,VWS V14.01,2013-05-21 21:09:00,
2013-05-21 14:14:00,89.4,54.8,29.38,SSE,158,0.9,0.9,31,0.00,,BKN300,0.00,VWS V14.01,2013-05-21 21:14:00,
2013-05-21 14:19:00,89.1,54.5,29.38,SSE,158,0.9,0.9,31,0.00,,BKN300,0.00,VWS V14.01,2013-05-21 21:19:00,
2013-05-21 14:24:00,89.8,55.1,29.38,SSE,158,0.9,0.9,31,0.00,,BKN300,0.00,VWS V14.01,2013-05-21 21:24:00,
2013-05-21 14:29:00,89.4,54.8,29.35,SSE,158,0.9,0.9,31,0.00,,BKN300,0.00,VWS V14.01,2013-05-21 21:29:00,
2013-05-21 14:34:00,89.6,55.0,29.35,SSE,158,0.9,0.9,31,0.00,,BKN300,0.00,VWS V14.01,2013-05-21 21:34:00,
2013-05-21 14:39:00,89.6,54.1,29.35,SSE,158,0.9,0.9,30,0.00,,BKN300,0.00,VWS V14.01,2013-05-21 21:39:00,
2013-05-21 14:44:00,89.2,54.7,29.35,SSE,158,0.9,0.9,31,0.00,,BKN300,0.00,VWS V14.01,2013-05-21 21:44:00,
2013-05-21 14:49:00,88.9,54.4,29.35,SSE,158,0.9,0.9,31,0.00,,BKN300,0.00,VWS V14.01,2013-05-21 21:49:00,
2013-05-21 14:54:00,88.7,54.2,29.35,SSE,158,0.9,0.9,31,0.00,,BKN300,0.00,VWS V14.01,2013-05-21 21:54:00,
2013-05-21 14:59:00,88.2,53.7,29.35,SSE,158,0.9,0.9,31,0.00,,BKN300,0.00,VWS V14.01,2013-05-21 21:59:00,
2013-05-21 15:04:00,88.5,54.1,29.35,SSE,158,0.9,0.9,31,0.00,,SCT300,0.00,VWS V14.01,2013-05-21 22:04:00,
2013-05-21 15:09:00,87.3,53.8,29.35,SSE,158,0.9,0.9,32,0.00,,SCT300,0.00,VWS V14.01,2013-05-21 22:09:00,
2013-05-21 15:14:00,86.7,53.4,29.35,SSE,158,0.9,0.9,32,0.00,,SCT300,0.00,VWS V14.01,2013-05-21 22:14:00,
2013-05-21 15:19:00,88.0,54.5,29.35,SSE,158,0.9,0.9,32,0.00,,SCT300,0.00,VWS V14.01,2013-05-21 22:19:00,
2013-05-21 15:24:00,88.2,54.6,29.35,SSE,158,0.9,0.9,32,0.00,,SCT300,0.00,VWS V14.01,2013-05-21 22:24:00,
2013-05-21 15:29:00,87.8,53.4,29.32,SSE,158,0.9,0.9,31,0.00,,SCT300,0.00,VWS V14.01,2013-05-21 22:29:00,
2013-05-21 15:34:00,88.5,54.1,29.32,SSE,158,0.9,0.9,31,0.00,,SCT300,0.00,VWS V14.01,2013-05-21 22:34:00,
2013-05-21 15:39:00,88.2,53.7,29.32,SSE,158,0.9,0.9,31,0.00,,SCT300,0.00,VWS V14.01,2013-05-21 22:39:00,
2013-05-21 15:44:00,88.5,54.1,29.32,SSE,158,0.9,0.9,31,0.00,,SCT300,0.00,VWS V14.01,2013-05-21 22:44:00,
2013-05-21 15:49:00,88.3,53.0,29.32,SSE,158,0.9,0.9,30,0.00,,SCT300,0.00,VWS V14.01,2013-05-21 22:49:00,
2013-05-21 15:54:00,87.6,53.3,29.32,SSE,158,0.9,0.9,31,0.00,,SCT300,0.00,VWS V14.01,2013-05-21 22:54:00,
2013-05-21 15:59:00,88.3,53.9,29.32,SSE,158,0.9,0.9,31,0.00,,SCT300,0.00,VWS V14.01,2013-05-21 22:59:00,
2013-05-21 16:04:00,88.2,53.7,29.32,SSE,158,0.9,0.9,31,0.00,,SCT300,0.00,VWS V14.01,2013-05-21 23:04:00,
2013-05-21 16:09:00,87.1,52.8,29.32,SSE,158,0.9,0.9,31,0.00,,SCT300,0.00,VWS V14.01,2013-05-21 23:09:00,
2013-05-21 16:14:00,87.1,52.8,29.29,SSE,158,0.9,0.9,31,0.00,,SCT300,0.00,VWS V14.01,2013-05-21 23:14:00,
2013-05-21 16:19:00,87.1,53.7,29.29,SSE,158,0.9,0.9,32,0.00,,SCT300,0.00,VWS V14.01,2013-05-21 23:19:00,
2013-05-21 16:24:00,86.9,53.5,29.29,SSE,158,0.9,0.9,32,0.00,,SCT300,0.00,VWS V14.01,2013-05-21 23:24:00,
2013-05-21 16:29:00,87.1,53.7,29.32,SSE,158,0.9,0.9,32,0.00,,SCT300,0.00,VWS V14.01,2013-05-21 23:29:00,
2013-05-21 16:34:00,86.7,53.4,29.32,SSE,158,0.9,0.9,32,0.00,,SCT300,0.00,VWS V14.01,2013-05-21 23:34:00,
2013-05-21 16:39:00,85.5,52.3,29.32,SSE,158,0.9,0.9,32,0.00,,SCT300,0.00,VWS V14.01,2013-05-21 23:39:00,
2013-05-21 16:44:00,86.2,53.7,29.32,SSE,158,0.9,0.9,33,0.00,,SCT300,0.00,VWS V14.01,2013-05-21 23:44:00,
2013-05-21 16:49:00,83.8,52.5,29.32,SSE,158,0.9,0.9,34,0.00,,SCT300,0.00,VWS V14.01,2013-05-21 23:49:00,
2013-05-21 16:54:00,83.7,53.1,29.32,SSE,158,0.9,0.9,35,0.00,,SCT300,0.00,VWS V14.01,2013-05-21 23:54:00,
2013-05-21 16:59:00,82.8,53.1,29.32,SSE,158,0.9,0.9,36,0.00,,SCT300,0.00,VWS V14.01,2013-05-21 23:59:00,
2013-05-21 17:05:00,82.2,54.1,29.32,SSE,158,0.9,0.9,38,0.00,,SCT300,0.00,VWS V14.01,2013-05-22 00:05:00,
2013-05-21 17:10:00,82.2,54.8,29.32,SSE,158,0.9,0.9,39,0.00,,SCT300,0.00,VWS V14.01,2013-05-22 00:10:00,
2013-05-21 17:15:00,81.5,54.2,29.32,SSE,158,0.9,0.9,39,0.00,,SCT300,0.00,VWS V14.01,2013-05-22 00:15:00,
2013-05-21 17:20:00,80.2,54.4,29.32,SSE,158,0.9,0.9,41,0.00,,SCT300,0.00,VWS V14.01,2013-05-22 00:20:00,
2013-05-21 17:25:00,80.1,54.3,29.32,SSE,158,0.9,0.9,41,0.00,,SCT300,0.00,VWS V14.01,2013-05-22 00:25:00,
2013-05-21 17:30:00,79.7,54.6,29.32,SSE,158,0.9,0.9,42,0.00,,SCT300,0.00,VWS V14.01,2013-05-22 00:30:00,
2013-05-21 17:35:00,79.5,54.4,29.32,SSE,158,0.9,0.9,42,0.00,,SCT300,0.00,VWS V14.01,2013-05-22 00:35:00,
2013-05-21 17:40:00,79.0,54.0,29.32,SSE,158,0.9,0.9,42,0.00,,SCT300,0.00,VWS V14.01,2013-05-22 00:40:00,
2013-05-21 17:45:00,78.4,54.1,29.32,SSE,158,0.9,0.9,43,0.00,,SCT300,0.00,VWS V14.01,2013-05-22 00:45:00,
2013-05-21 17:50:00,78.1,54.4,29.32,SSE,158,0.9,0.9,44,0.00,,SCT300,0.00,VWS V14.01,2013-05-22 00:50:00,
2013-05-21 17:55:00,77.7,54.1,29.32,SSE,158,0.9,0.9,44,0.00,,SCT300,0.00,VWS V14.01,2013-05-22 00:55:00,
2013-05-21 18:00:00,77.4,53.8,29.32,SSE,158,0.9,0.9,44,0.00,,SCT300,0.00,VWS V14.01,2013-05-22 01:00:00,
2013-05-21 18:05:00,75.9,53.7,29.32,SSE,158,0.9,0.9,46,0.00,,SCT300,0.00,VWS V14.01,2013-05-22 01:05:00,
2013-05-21 18:10:00,75.7,54.1,29.32,SSE,158,0.9,0.9,47,0.00,,SCT300,0.00,VWS V14.01,2013-05-22 01:10:00,
2013-05-21 18:15:00,75.6,53.9,29.32,SSE,158,0.9,0.9,47,0.00,,SCT300,0.00,VWS V14.01,2013-05-22 01:15:00,
2013-05-21 18:20:00,75.0,54.0,29.32,SSE,158,0.9,0.9,48,0.00,,SCT300,0.00,VWS V14.01,2013-05-22 01:20:00,
2013-05-21 18:25:00,74.5,54.1,29.32,SSE,158,0.9,0.9,49,0.00,,SCT300,0.00,VWS V14.01,2013-05-22 01:25:00,
2013-05-21 18:30:00,73.6,53.8,29.32,SSE,158,0.9,0.9,50,0.00,,SCT300,0.00,VWS V14.01,2013-05-22 01:30:00,
2013-05-21 18:35:00,72.5,53.9,29.32,SSE,158,0.9,0.9,52,0.00,,SCT300,0.00,VWS V14.01,2013-05-22 01:35:00,
2013-05-21 18:40:00,72.0,54.4,29.32,SSE,158,0.9,0.9,54,0.00,,SCT300,0.00,VWS V14.01,2013-05-22 01:40:00,
2013-05-21 18:45:00,71.4,54.9,29.32,SSE,158,0.9,0.9,56,0.00,,SCT300,0.00,VWS V14.01,2013-05-22 01:45:00,
2013-05-21 18:50:00,70.9,54.9,29.32,SSE,158,0.9,0.9,57,0.00,,SCT300,0.00,VWS V14.01,2013-05-22 01:50:00,
2013-05-21 18:55:00,70.5,55.0,29.32,SSE,158,0.9,0.9,58,0.00,,SCT300,0.00,VWS V14.01,2013-05-22 01:55:00,
2013-05-21 19:00:00,69.8,54.8,29.32,SSE,158,0.9,0.9,59,0.00,,SCT300,0.00,VWS V14.01,2013-05-22 02:00:00,
2013-05-21 19:05:00,69.3,55.2,29.32,SSE,158,0.9,0.9,61,0.00,,SCT300,0.00,VWS V14.01,2013-05-22 02:05:00,
2013-05-21 19:10:00,69.1,55.5,29.32,SSE,158,0.9,0.9,62,0.00,,SCT300,0.00,VWS V14.01,2013-05-22 02:10:00,
2013-05-21 19:15:00,68.4,54.8,29.32,SSE,158,0.9,0.9,62,0.00,,SCT300,0.00,VWS V14.01,2013-05-22 02:15:00,
2013-05-21 19:20:00,67.8,55.2,29.32,SSE,158,0.9,0.9,64,0.00,,SCT300,0.00,VWS V14.01,2013-05-22 02:20:00,
2013-05-21 19:25:00,67.6,55.9,29.32,SSE,158,0.9,0.9,66,0.00,,SCT300,0.00,VWS V14.01,2013-05-22 02:25:00,
2013-05-21 19:30:00,67.1,55.4,29.32,SSE,158,0.9,0.9,66,0.00,,SCT300,0.00,VWS V14.01,2013-05-22 02:30:00,
2013-05-21 19:35:00,66.6,55.7,29.32,SSE,158,0.9,0.9,68,0.00,,SCT300,0.00,VWS V14.01,2013-05-22 02:35:00,
2013-05-21 19:40:00,66.2,55.3,29.32,SSE,158,0.9,0.9,68,0.00,,SCT300,0.00,VWS V14.01,2013-05-22 02:40:00,
2013-05-21 19:45:00,65.7,55.2,29.32,SSE,158,0.9,0.9,69,0.00,,SCT300,0.00,VWS V14.01,2013-05-22 02:45:00,
2013-05-21 19:50:00,65.5,55.0,29.32,SSE,158,0.9,0.9,69,0.00,,SCT300,0.00,VWS V14.01,2013-05-22 02:50:00,
2013-05-21 19:55:00,64.9,55.3,29.32,SSE,158,0.9,0.9,71,0.00,,SCT300,0.00,VWS V14.01,2013-05-22 02:55:00,
2013-05-21 20:00:00,64.8,55.5,29.32,SSE,158,0.9,0.9,72,0.00,,SCT300,0.00,VWS V14.01,2013-05-22 03:00:00,
2013-05-21 20:05:00,64.8,55.5,29.32,SSE,158,0.9,0.9,72,0.00,,SCT300,0.00,VWS V14.01,2013-05-22 03:05:00,
2013-05-21 20:10:00,64.2,55.8,29.32,SSE,158,0.9,0.9,74,0.00,,SCT300,0.00,VWS V14.01,2013-05-22 03:10:00,
2013-05-21 20:15:00,64.0,56.0,29.32,SSE,158,0.9,0.9,75,0.00,,SCT300,0.00,VWS V14.01,2013-05-22 03:15:00,
2013-05-21 20:20:00,64.0,56.0,29.32,SSE,158,0.9,0.9,75,0.00,,SCT300,0.00,VWS V14.01,2013-05-22 03:20:00,
2013-05-21 20:25:00,63.9,55.8,29.32,SSE,158,0.9,0.9,75,0.00,,SCT300,0.00,VWS V14.01,2013-05-22 03:25:00,
2013-05-21 20:30:00,63.9,55.8,29.35,SSE,158,0.9,0.9,75,0.00,,SCT300,0.00,VWS V14.01,2013-05-22 03:30:00,
2013-05-21 20:35:00,63.9,55.8,29.35,SSE,158,0.9,0.9,75,0.00,,SCT300,0.00,VWS V14.01,2013-05-22 03:35:00,
2013-05-21 20:40:00,63.5,56.2,29.35,SSE,158,0.9,0.9,77,0.00,,SCT300,0.00,VWS V14.01,2013-05-22 03:40:00,
2013-05-21 20:45:00,63.5,56.2,29.29,SSE,158,0.9,0.9,77,0.00,,SCT300,0.00,VWS V14.01,2013-05-22 03:45:00,
2013-05-21 20:50:00,63.5,56.2,29.29,SSE,158,0.9,0.9,77,0.00,,SCT300,0.00,VWS V14.01,2013-05-22 03:50:00,
2013-05-21 20:55:00,63.7,57.0,29.29,SSE,158,0.9,0.9,79,0.00,,SCT300,0.00,VWS V14.01,2013-05-22 03:55:00,
2013-05-21 21:00:00,63.7,57.0,29.29,SSE,158,0.9,0.9,79,0.00,,SCT300,0.00,VWS V14.01,2013-05-22 04:00:00,
2013-05-21 21:01:00,63.7,57.0,29.29,SSE,158,0.9,0.9,79,0.00,,SCT300,0.00,VWS V14.01,2013-05-22 04:01:00,
2013-05-21 21:06:00,63.7,56.7,29.29,SSE,158,0.9,0.9,78,0.00,,SCT300,0.00,VWS V14.01,2013-05-22 04:06:00,
2013-05-21 21:11:00,63.5,57.2,29.29,SSE,158,0.9,0.9,80,0.00,,SCT300,0.00,VWS V14.01,2013-05-22 04:11:00,
2013-05-21 21:16:00,63.5,57.2,29.32,SSE,158,0.9,0.9,80,0.00,,SCT300,0.00,VWS V14.01,2013-05-22 04:16:00,
2013-05-21 21:21:00,63.9,57.6,29.32,SSE,158,0.9,0.9,80,0.00,,SCT300,0.00,VWS V14.01,2013-05-22 04:21:00,
2013-05-21 21:26:00,63.9,57.2,29.32,SSE,158,0.9,0.9,79,0.00,,SCT300,0.00,VWS V14.01,2013-05-22 04:26:00,
2013-05-21 21:31:00,63.9,57.2,29.32,SSE,158,0.9,0.9,79,0.00,,BKN300,0.00,VWS V14.01,2013-05-22 04:31:00,
2013-05-21 21:36:00,63.7,57.0,29.32,SSE,158,0.9,0.9,79,0.00,,BKN300,0.00,VWS V14.01,2013-05-22 04:36:00,
2013-05-21 21:41:00,63.7,57.4,29.32,SSE,158,0.9,0.9,80,0.00,,BKN300,0.00,VWS V14.01,2013-05-22 04:41:00,
2013-05-21 21:46:00,63.7,57.4,29.35,SSE,158,0.9,0.9,80,0.00,,BKN300,0.00,VWS V14.01,2013-05-22 04:46:00,
2013-05-21 21:51:00,63.5,57.2,29.35,SSE,158,0.9,0.9,80,0.00,,BKN300,0.00,VWS V14.01,2013-05-22 04:51:00,
2013-05-21 21:56:00,63.5,57.2,29.35,SSE,158,0.9,0.9,80,0.00,,BKN300,0.00,VWS V14.01,2013-05-22 04:56:00,
2013-05-21 22:01:00,63.5,57.2,29.35,SSE,158,0.9,0.9,80,0.00,,OVC012,0.00,VWS V14.01,2013-05-22 05:01:00,
2013-05-21 22:06:00,63.5,57.2,29.35,SSE,158,0.9,0.9,80,0.00,,OVC012,0.00,VWS V14.01,2013-05-22 05:06:00,
2013-05-21 22:11:00,63.5,57.2,29.35,SSE,158,0.9,0.9,80,0.00,,OVC012,0.00,VWS V14.01,2013-05-22 05:11:00,
2013-05-21 22:16:00,63.5,57.2,29.35,SSE,158,0.9,0.9,80,0.00,,OVC012,0.00,VWS V14.01,2013-05-22 05:16:00,
2013-05-21 22:21:00,63.5,57.6,29.35,SSE,158,0.9,0.9,81,0.00,,OVC012,0.00,VWS V14.01,2013-05-22 05:21:00,
2013-05-21 22:26:00,63.5,57.6,29.35,SSE,158,0.9,0.9,81,0.00,,OVC012,0.00,VWS V14.01,2013-05-22 05:26:00,
2013-05-21 22:31:00,63.3,57.4,29.35,SSE,158,0.9,0.9,81,0.00,,OVC012,0.00,VWS V14.01,2013-05-22 05:31:00,
2013-05-21 22:36:00,63.1,57.2,29.35,SSE,158,0.9,0.9,81,0.00,,OVC012,0.00,VWS V14.01,2013-05-22 05:36:00,
2013-05-21 22:41:00,63.1,56.9,29.35,SSE,158,0.9,0.9,80,0.00,,OVC012,0.00,VWS V14.01,2013-05-22 05:41:00,
2013-05-21 22:46:00,63.1,57.2,29.35,SSE,158,0.9,0.9,81,0.00,,OVC012,0.00,VWS V14.01,2013-05-22 05:46:00,
2013-05-21 22:51:00,63.1,57.2,29.35,SSE,158,0.9,0.9,81,0.00,,OVC012,0.00,VWS V14.01,2013-05-22 05:51:00,
2013-05-21 22:56:00,63.1,57.2,29.35,SSE,158,0.9,0.9,81,0.00,,OVC012,0.00,VWS V14.01,2013-05-22 05:56:00,
2013-05-21 23:01:00,63.1,57.2,29.35,SSE,158,0.9,0.9,81,0.00,,OVC012,0.00,VWS V14.01,2013-05-22 06:01:00,
2013-05-21 23:06:00,63.1,57.2,29.35,SSE,158,0.9,0.9,81,0.00,,OVC012,0.00,VWS V14.01,2013-05-22 06:06:00,
2013-05-21 23:11:00,63.1,56.9,29.35,SSE,158,0.9,0.9,80,0.00,,OVC012,0.00,VWS V14.01,2013-05-22 06:11:00,
2013-05-21 23:16:00,63.3,57.0,29.35,SSE,158,0.9,0.9,80,0.00,,OVC012,0.00,VWS V14.01,2013-05-22 06:16:00,
2013-05-21 23:21:00,63.3,57.0,29.35,SSE,158,0.9,0.9,80,0.00,,OVC012,0.00,VWS V14.01,2013-05-22 06:21:00,
2013-05-21 23:26:00,63.1,56.9,29.35,SSE,158,0.9,0.9,80,0.00,,OVC012,0.00,VWS V14.01,2013-05-22 06:26:00,
2013-05-21 23:31:00,63.0,56.7,29.32,SSE,158,0.9,0.9,80,0.00,,OVC012,0.00,VWS V14.01,2013-05-22 06:31:00,
2013-05-21 23:36:00,63.0,56.7,29.32,SSE,158,0.9,0.9,80,0.00,,OVC012,0.00,VWS V14.01,2013-05-22 06:36:00,
2013-05-21 23:41:00,63.0,56.7,29.32,SSE,158,0.9,0.9,80,0.00,,OVC012,0.00,VWS V14.01,2013-05-22 06:41:00,
2013-05-21 23:46:00,63.0,56.7,29.32,SSE,158,0.9,0.9,80,0.00,,OVC012,0.00,VWS V14.01,2013-05-22 06:46:00,
2013-05-21 23:51:00,63.0,56.7,29.32,SSE,158,0.9,0.9,80,0.00,,OVC012,0.00,VWS V14.01,2013-05-22 06:51:00,
2013-05-21 23:56:00,63.0,56.7,29.32,SSE,158,0.9,0.9,80,0.00,,OVC012,0.00,VWS V14.01,2013-05-22 06:56:00,